Time,TemperatureF,DewpointF,PressureIn,WindDirection,WindDirectionDegrees,WindSpeedMPH,WindSpeedGustMPH,Humidity,HourlyPrecipIn,Conditions,Clouds,dailyrainin,SolarRadiationWatts/m^2,SoftwareType,DateUTC
2013-05-22 00:01:00,31.9,25.0,29.79,SSW,212,2.0,-999.0,75,-99.99,,,0.00,0,weatherlink.com 1.10,2013-05-22 07:01:00,
2013-05-22 00:15:00,31.4,25.0,29.80,SSW,203,2.0,-999.0,77,-99.99,,,0.00,0,weatherlink.com 1.10,2013-05-22 07:15:00,
2013-05-22 00:30:00,31.3,25.0,29.79,SSW,203,2.0,-999.0,77,-99.99,,,0.00,0,weatherlink.com 1.10,2013-05-22 07:30:00,
2013-05-22 00:45:00,31.6,25.0,29.79,SSW,203,0.0,-999.0,76,-99.99,,,0.00,0,weatherlink.com 1.10,2013-05-22 07:45:00,
2013-05-22 01:00:00,31.2,24.0,29.80,SSW,203,0.0,-999.0,76,-99.99,,,0.00,0,weatherlink.com 1.10,2013-05-22 08:00:00,
2013-05-22 01:15:00,31.2,24.0,29.80,SSW,203,5.0,-999.0,76,-99.99,,,0.00,0,weatherlink.com 1.10,2013-05-22 08:15:00,
2013-05-22 01:30:00,30.6,24.0,29.80,SSW,205,2.0,-999.0,77,-99.99,,,0.00,0,weatherlink.com 1.10,2013-05-22 08:30:00,
2013-05-22 01:45:00,30.7,23.0,29.81,South,179,2.0,-999.0,74,-99.99,,,0.00,0,weatherlink.com 1.10,2013-05-22 08:45:00,
2013-05-22 02:00:00,31.3,24.0,29.80,South,179,2.0,-999.0,74,-99.99,,,0.00,0,weatherlink.com 1.10,2013-05-22 09:00:00,
2013-05-22 02:15:00,30.1,22.0,29.80,WSW,245,2.0,-999.0,73,-99.99,,,0.00,0,weatherlink.com 1.10,2013-05-22 09:15:00,
2013-05-22 02:30:00,31.3,22.0,29.80,SW,236,4.0,-999.0,68,-99.99,,,0.00,0,weatherlink.com 1.10,2013-05-22 09:30:00,
2013-05-22 02:45:00,30.7,21.0,29.80,SW,232,3.0,-999.0,68,-99.99,,,0.00,0,weatherlink.com 1.10,2013-05-22 09:45:00,
2013-05-22 03:00:00,30.1,20.0,29.80,SSW,205,1.0,-999.0,67,-99.99,,,0.00,0,weatherlink.com 1.10,2013-05-22 10:00:00,
2013-05-22 03:15:00,30.5,21.0,29.80,SSW,201,0.0,-999.0,68,-99.99,,,0.00,0,weatherlink.com 1.10,2013-05-22 10:15:00,
2013-05-22 03:30:00,30.6,22.0,29.80,South,180,2.0,-999.0,69,-99.99,,,0.00,0,weatherlink.com 1.10,2013-05-22 10:30:00,
2013-05-22 03:45:00,30.4,22.0,29.80,South,183,3.0,-999.0,72,-99.99,,,0.00,0,weatherlink.com 1.10,2013-05-22 10:45:00,
2013-05-22 04:00:00,30.6,22.0,29.79,South,190,5.0,-999.0,71,-99.99,,,0.00,0,weatherlink.com 1.10,2013-05-22 11:00:00,
2013-05-22 04:15:00,30.7,22.0,29.80,South,190,2.0,-999.0,69,-99.99,,,0.00,0,weatherlink.com 1.10,2013-05-22 11:15:00,
2013-05-22 04:30:00,29.2,22.0,29.80,South,190,0.0,-999.0,73,-99.99,,,0.00,0,weatherlink.com 1.10,2013-05-22 11:30:00,
2013-05-22 04:45:00,28.8,22.0,29.80,South,190,3.0,-999.0,76,-99.99,,,0.00,0,weatherlink.com 1.10,2013-05-22 11:45:00,
2013-05-22 05:00:00,29.0,22.0,29.80,South,190,0.0,-999.0,74,-99.99,,,0.00,0,weatherlink.com 1.10,2013-05-22 12:00:00,
2013-05-22 05:15:00,29.3,22.0,29.80,South,190,2.0,-999.0,73,-99.99,,,0.00,0,weatherlink.com 1.10,2013-05-22 12:15:00,
2013-05-22 05:30:00,30.6,23.0,29.81,South,186,2.0,-999.0,72,-99.99,,,0.00,0,weatherlink.com 1.10,2013-05-22 12:30:00,
2013-05-22 05:45:00,31.2,23.0,29.80,South,184,4.0,-999.0,71,-99.99,,,0.00,9,weatherlink.com 1.10,2013-05-22 12:45:00,
2013-05-22 06:00:00,31.6,24.0,29.80,South,178,7.0,-999.0,72,-99.99,,,0.00,25,weatherlink.com 1.10,2013-05-22 13:00:00,
2013-05-22 06:15:00,32.0,24.0,29.80,South,188,5.0,-999.0,72,-99.99,,,0.00,42,weatherlink.com 1.10,2013-05-22 13:15:00,
2013-05-22 06:30:00,32.5,25.0,29.80,South,186,6.0,-999.0,73,-99.99,,,0.00,54,weatherlink.com 1.10,2013-05-22 13:30:00,
2013-05-22 06:45:00,33.3,25.0,29.81,SSW,198,4.0,-999.0,72,-99.99,,,0.00,56,weatherlink.com 1.10,2013-05-22 13:45:00,
2013-05-22 07:00:00,33.3,26.0,29.81,South,173,6.0,-999.0,73,-99.99,,,0.00,83,weatherlink.com 1.10,2013-05-22 14:00:00,
2013-05-22 07:15:00,34.4,26.0,29.81,SSE,166,6.0,-999.0,72,-99.99,,,0.00,206,weatherlink.com 1.10,2013-05-22 14:15:00,
2013-05-22 07:30:00,36.7,27.0,29.82,SSE,165,2.0,-999.0,67,-99.99,,,0.00,360,weatherlink.com 1.10,2013-05-22 14:30:00,
2013-05-22 07:45:00,38.8,26.0,29.82,SSE,148,5.0,-999.0,60,-99.99,,,0.00,485,weatherlink.com 1.10,2013-05-22 14:45:00,
2013-05-22 08:00:00,38.4,26.0,29.82,SSE,161,0.0,-999.0,62,-99.99,,,0.00,195,weatherlink.com 1.10,2013-05-22 15:00:00,
2013-05-22 08:15:00,38.3,27.0,29.82,SE,138,4.0,-999.0,64,-99.99,,,0.00,181,weatherlink.com 1.10,2013-05-22 15:15:00,
2013-05-22 08:30:00,38.2,27.0,29.82,ESE,117,9.0,-999.0,64,-99.99,,,0.00,318,weatherlink.com 1.10,2013-05-22 15:30:00,
2013-05-22 08:45:00,39.1,28.0,29.82,SE,124,2.0,-999.0,65,-99.99,,,0.00,353,weatherlink.com 1.10,2013-05-22 15:45:00,
2013-05-22 09:00:00,39.4,27.0,29.82,SSE,168,4.0,-999.0,62,-99.99,,,0.00,181,weatherlink.com 1.10,2013-05-22 16:00:00,
2013-05-22 09:15:00,39.5,28.0,29.82,SE,132,6.0,-999.0,63,-99.99,,,0.00,171,weatherlink.com 1.10,2013-05-22 16:15:00,
2013-05-22 09:30:00,39.6,27.0,29.82,SE,130,7.0,-999.0,61,-99.99,,,0.00,236,weatherlink.com 1.10,2013-05-22 16:30:00,
2013-05-22 09:45:00,40.6,27.0,29.82,ESE,102,0.0,-999.0,59,-99.99,,,0.00,316,weatherlink.com 1.10,2013-05-22 16:45:00,
2013-05-22 10:00:00,41.6,25.0,29.82,ESE,122,0.0,-999.0,53,-99.99,,,0.00,332,weatherlink.com 1.10,2013-05-22 17:00:00,
2013-05-22 10:15:00,41.4,25.0,29.82,North,360,3.0,-999.0,53,-99.99,,,0.00,439,weatherlink.com 1.10,2013-05-22 17:15:00,
2013-05-22 10:30:00,42.0,25.0,29.82,North,360,1.0,-999.0,52,-99.99,,,0.00,464,weatherlink.com 1.10,2013-05-22 17:30:00,
2013-05-22 10:45:00,42.3,24.0,29.82,West,281,6.0,-999.0,48,-99.99,,,0.00,348,weatherlink.com 1.10,2013-05-22 17:45:00,
2013-05-22 11:00:00,42.9,25.0,29.82,SSW,201,8.0,-999.0,49,-99.99,,,0.00,329,weatherlink.com 1.10,2013-05-22 18:00:00,
2013-05-22 11:15:00,42.8,24.0,29.83,WNW,287,11.0,-999.0,48,-99.99,,,0.00,394,weatherlink.com 1.10,2013-05-22 18:15:00,
2013-05-22 11:30:00,42.8,24.0,29.83,West,271,8.0,-999.0,47,-99.99,,,0.00,299,weatherlink.com 1.10,2013-05-22 18:30:00,
2013-05-22 11:45:00,43.2,24.0,29.83,WNW,283,7.0,-999.0,46,-99.99,,,0.00,302,weatherlink.com 1.10,2013-05-22 18:45:00,
2013-05-22 12:00:00,43.1,25.0,29.83,South,190,7.0,-999.0,49,-99.99,,,0.00,374,weatherlink.com 1.10,2013-05-22 19:00:00,
2013-05-22 12:15:00,43.6,25.0,29.83,SW,217,6.0,-999.0,48,-99.99,,,0.00,471,weatherlink.com 1.10,2013-05-22 19:15:00,
2013-05-22 12:30:00,43.8,25.0,29.84,SW,233,3.0,-999.0,47,-99.99,,,0.00,362,weatherlink.com 1.10,2013-05-22 19:30:00,
2013-05-22 12:45:00,44.5,25.0,29.84,West,281,3.0,-999.0,46,-99.99,,,0.00,348,weatherlink.com 1.10,2013-05-22 19:45:00,
2013-05-22 13:00:00,44.4,25.0,29.84,WNW,303,8.0,-999.0,46,-99.99,,,0.00,364,weatherlink.com 1.10,2013-05-22 20:00:00,
2013-05-22 13:15:00,44.5,25.0,29.84,WSW,248,13.0,-999.0,47,-99.99,,,0.00,244,weatherlink.com 1.10,2013-05-22 20:15:00,
2013-05-22 13:30:00,44.5,26.0,29.84,South,191,8.0,-999.0,49,-99.99,,,0.00,336,weatherlink.com 1.10,2013-05-22 20:30:00,
2013-05-22 13:45:00,43.8,28.0,29.84,SSE,158,15.0,-999.0,55,-99.99,,,0.00,262,weatherlink.com 1.10,2013-05-22 20:45:00,
2013-05-22 14:00:00,43.5,29.0,29.85,South,169,13.0,-999.0,56,-99.99,,,0.00,330,weatherlink.com 1.10,2013-05-22 21:00:00,
2013-05-22 14:15:00,44.0,28.0,29.85,South,190,6.0,-999.0,53,-99.99,,,0.00,229,weatherlink.com 1.10,2013-05-22 21:15:00,
2013-05-22 14:30:00,43.3,27.0,29.86,SSW,213,4.0,-999.0,54,-99.99,,,0.00,258,weatherlink.com 1.10,2013-05-22 21:30:00,
2013-05-22 14:45:00,43.8,27.0,29.86,South,185,7.0,-999.0,53,-99.99,,,0.00,348,weatherlink.com 1.10,2013-05-22 21:45:00,
2013-05-22 15:00:00,44.9,28.0,29.86,SE,142,6.0,-999.0,52,-99.99,,,0.00,325,weatherlink.com 1.10,2013-05-22 22:00:00,
2013-05-22 15:15:00,44.9,27.0,29.86,South,175,11.0,-999.0,50,-99.99,,,0.00,260,weatherlink.com 1.10,2013-05-22 22:15:00,
2013-05-22 15:30:00,45.4,27.0,29.86,South,180,4.0,-999.0,48,-99.99,,,0.00,285,weatherlink.com 1.10,2013-05-22 22:30:00,
2013-05-22 15:45:00,46.1,29.0,29.86,South,184,2.0,-999.0,51,-99.99,,,0.00,355,weatherlink.com 1.10,2013-05-22 22:45:00,
2013-05-22 16:00:00,46.1,27.0,29.86,South,182,6.0,-999.0,48,-99.99,,,0.00,279,weatherlink.com 1.10,2013-05-22 23:00:00,
2013-05-22 16:15:00,45.8,27.0,29.86,ESE,116,0.0,-999.0,49,-99.99,,,0.00,237,weatherlink.com 1.10,2013-05-22 23:15:00,
2013-05-22 16:30:00,46.3,28.0,29.86,East,85,3.0,-999.0,49,-99.99,,,0.00,239,weatherlink.com 1.10,2013-05-22 23:30:00,
2013-05-22 16:45:00,46.5,28.0,29.86,ESE,105,1.0,-999.0,49,-99.99,,,0.00,283,weatherlink.com 1.10,2013-05-22 23:45:00,
2013-05-22 17:00:00,46.0,28.0,29.86,SSE,160,8.0,-999.0,49,-99.99,,,0.00,111,weatherlink.com 1.10,2013-05-23 00:00:00,
2013-05-22 17:15:00,45.5,27.0,29.86,South,176,5.0,-999.0,49,-99.99,,,0.00,79,weatherlink.com 1.10,2013-05-23 00:15:00,
2013-05-22 17:30:00,45.5,27.0,29.86,SSE,159,0.0,-999.0,48,-99.99,,,0.00,139,weatherlink.com 1.10,2013-05-23 00:30:00,
2013-05-22 17:45:00,45.6,28.0,29.87,SE,142,6.0,-999.0,50,-99.99,,,0.00,120,weatherlink.com 1.10,2013-05-23 00:45:00,
2013-05-22 18:00:00,45.6,27.0,29.86,ESE,123,2.0,-999.0,49,-99.99,,,0.00,118,weatherlink.com 1.10,2013-05-23 01:00:00,
2013-05-22 18:15:00,45.5,29.0,29.86,ESE,111,0.0,-999.0,53,-99.99,,,0.00,107,weatherlink.com 1.10,2013-05-23 01:15:00,
2013-05-22 18:30:00,45.2,28.0,29.86,SE,126,4.0,-999.0,52,-99.99,,,0.00,88,weatherlink.com 1.10,2013-05-23 01:30:00,
2013-05-22 18:45:00,45.6,28.0,29.86,East,79,1.0,-999.0,50,-99.99,,,0.00,102,weatherlink.com 1.10,2013-05-23 01:45:00,
2013-05-22 19:00:00,45.2,27.0,29.86,East,82,0.0,-999.0,50,-99.99,,,0.00,95,weatherlink.com 1.10,2013-05-23 02:00:00,
2013-05-22 19:15:00,45.2,28.0,29.86,East,82,0.0,-999.0,51,-99.99,,,0.00,91,weatherlink.com 1.10,2013-05-23 02:15:00,
2013-05-22 19:30:00,45.2,28.0,29.86,East,79,0.0,-999.0,52,-99.99,,,0.00,62,weatherlink.com 1.10,2013-05-23 02:30:00,
2013-05-22 19:45:00,45.4,28.0,29.87,East,88,3.0,-999.0,51,-99.99,,,0.00,46,weatherlink.com 1.10,2013-05-23 02:45:00,
2013-05-22 20:00:00,44.7,28.0,29.87,East,88,0.0,-999.0,53,-99.99,,,0.00,32,weatherlink.com 1.10,2013-05-23 03:00:00,
2013-05-22 20:15:00,44.1,28.0,29.87,East,86,0.0,-999.0,53,-99.99,,,0.00,16,weatherlink.com 1.10,2013-05-23 03:15:00,
2013-05-22 20:30:00,43.1,29.0,29.87,East,86,3.0,-999.0,58,-99.99,,,0.00,0,weatherlink.com 1.10,2013-05-23 03:30:00,
2013-05-22 20:45:00,42.2,28.0,29.86,ESE,123,4.0,-999.0,58,-99.99,,,0.00,0,weatherlink.com 1.10,2013-05-23 03:45:00,
2013-05-22 21:00:00,41.6,28.0,29.86,SE,127,1.0,-999.0,60,-99.99,,,0.00,0,weatherlink.com 1.10,2013-05-23 04:00:00,
2013-05-22 22:14:00,39.7,29.0,29.88,SE,129,0.0,-999.0,65,-99.99,,,0.00,0,weatherlink.com 1.10,2013-05-23 05:14:00,
2013-05-22 22:30:00,39.8,28.0,29.88,SE,129,0.0,-999.0,64,-99.99,,,0.00,0,weatherlink.com 1.10,2013-05-23 05:30:00,
2013-05-22 22:45:00,40.0,29.0,29.88,ESE,121,0.0,-999.0,64,-99.99,,,0.00,0,weatherlink.com 1.10,2013-05-23 05:45:00,
2013-05-22 23:00:00,39.6,29.0,29.88,ESE,121,0.0,-999.0,66,-99.99,,,0.00,0,weatherlink.com 1.10,2013-05-23 06:00:00,
2013-05-22 23:15:00,38.5,28.0,29.88,SE,128,4.0,-999.0,66,-99.99,,,0.00,0,weatherlink.com 1.10,2013-05-23 06:15:00,
2013-05-22 23:30:00,39.2,29.0,29.87,ESE,121,0.0,-999.0,66,-99.99,,,0.00,0,weatherlink.com 1.10,2013-05-23 06:30:00,
2013-05-22 23:45:00,38.5,28.0,29.87,SSE,167,4.0,-999.0,66,-99.99,,,0.00,0,weatherlink.com 1.10,2013-05-23 06:45:00,